Time,TemperatureF,DewpointF,PressureIn,WindDirection,WindDirectionDegrees,WindSpeedMPH,WindSpeedGustMPH,Humidity,HourlyPrecipIn,Conditions,Clouds,dailyrainin,SoftwareType,DateUTC
2013-04-11 00:00:00,63.1,54.7,29.88,SSW,209,0.0,5.0,74,0.00,,---,0.00,VWS V14.00,2013-04-11 04:00:00,
2013-04-11 00:01:00,63.1,54.7,29.88,SSW,209,0.0,5.0,74,0.00,,---,0.00,VWS V14.00,2013-04-11 04:01:00,
2013-04-11 00:06:00,63.1,54.7,29.88,SSW,209,0.0,3.0,74,0.00,,---,0.00,VWS V14.00,2013-04-11 04:06:00,
2013-04-11 00:12:00,63.2,54.8,29.88,SSW,209,1.0,3.0,74,0.00,,---,0.00,VWS V14.00,2013-04-11 04:12:00,
2013-04-11 00:17:00,63.5,55.1,29.87,SSW,209,0.0,3.0,74,0.00,,---,0.00,VWS V14.00,2013-04-11 04:17:00,
2013-04-11 00:22:00,63.5,54.7,29.87,SSW,209,0.0,3.0,73,0.00,,---,0.00,VWS V14.00,2013-04-11 04:22:00,
2013-04-11 00:27:00,63.5,55.1,29.88,SSW,209,0.0,3.0,74,0.00,,---,0.00,VWS V14.00,2013-04-11 04:27:00,
2013-04-11 00:30:00,63.4,54.6,29.87,SSW,209,0.0,3.0,73,0.00,,---,0.00,VWS V14.00,2013-04-11 04:30:00,
2013-04-11 00:32:00,63.4,55.0,29.87,SSW,209,0.0,0.0,74,0.00,,---,0.00,VWS V14.00,2013-04-11 04:32:00,
2013-04-11 00:37:00,63.4,54.6,29.87,SSW,209,0.0,5.0,73,0.00,,---,0.00,VWS V14.00,2013-04-11 04:37:00,
2013-04-11 00:43:00,63.1,54.7,29.87,SSW,209,0.0,5.0,74,0.00,,---,0.00,VWS V14.00,2013-04-11 04:43:00,
2013-04-11 00:48:00,62.7,54.3,29.87,SSW,209,1.0,5.0,74,0.00,,---,0.00,VWS V14.00,2013-04-11 04:48:00,
2013-04-11 00:53:00,62.4,54.4,29.87,SSW,209,0.0,5.0,75,0.00,,---,0.00,VWS V14.00,2013-04-11 04:53:00,
2013-04-11 00:58:00,61.8,54.2,29.87,SSW,209,0.0,5.0,76,0.00,,---,0.00,VWS V14.00,2013-04-11 04:58:00,
2013-04-11 01:00:00,61.6,54.3,29.87,SSW,209,1.0,5.0,77,0.00,,---,0.00,VWS V14.00,2013-04-11 05:00:00,
2013-04-11 01:03:00,61.9,54.6,29.87,SSW,209,2.0,3.0,77,0.00,,---,0.00,VWS V14.00,2013-04-11 05:03:00,
2013-04-11 01:08:00,62.0,54.4,29.88,SSW,209,1.0,3.0,76,0.00,,---,0.00,VWS V14.00,2013-04-11 05:08:00,
2013-04-11 01:14:00,61.8,54.5,29.88,SSW,209,0.0,3.0,77,0.00,,---,0.00,VWS V14.00,2013-04-11 05:14:00,
2013-04-11 01:19:00,61.5,54.2,29.88,SSW,209,0.0,3.0,77,0.00,,---,0.00,VWS V14.00,2013-04-11 05:19:00,
2013-04-11 01:24:00,62.1,54.8,29.88,SSW,209,1.0,3.0,77,0.00,,---,0.00,VWS V14.00,2013-04-11 05:24:00,
2013-04-11 01:29:00,62.6,54.6,29.88,SSW,209,0.0,3.0,75,0.00,,---,0.00,VWS V14.00,2013-04-11 05:29:00,
2013-04-11 01:30:00,62.6,54.6,29.88,SSW,209,1.0,3.0,75,0.00,,---,0.00,VWS V14.00,2013-04-11 05:30:00,
2013-04-11 01:34:00,62.4,54.4,29.87,SSW,209,0.0,1.0,75,0.00,,---,0.00,VWS V14.00,2013-04-11 05:34:00,
2013-04-11 01:39:00,61.9,54.3,29.87,SSW,209,0.0,1.0,76,0.00,,---,0.00,VWS V14.00,2013-04-11 05:39:00,
2013-04-11 01:44:00,61.6,54.0,29.87,SSW,209,0.0,1.0,76,0.00,,---,0.00,VWS V14.00,2013-04-11 05:44:00,
2013-04-11 01:50:00,61.1,53.8,29.87,SSW,209,0.0,1.0,77,0.00,,---,0.00,VWS V14.00,2013-04-11 05:50:00,
2013-04-11 01:55:00,60.7,53.8,29.86,SSW,209,0.0,1.0,78,0.00,,---,0.00,VWS V14.00,2013-04-11 05:55:00,
2013-04-11 02:00:00,60.5,54.0,29.86,SSW,209,0.0,2.0,79,0.00,,---,0.00,VWS V14.00,2013-04-11 06:00:00,
2013-04-11 02:05:00,60.1,53.6,29.85,SSW,209,0.0,2.0,79,0.00,,---,0.00,VWS V14.00,2013-04-11 06:05:00,
2013-04-11 02:10:00,59.7,53.5,29.85,SSW,209,0.0,2.0,80,0.00,,---,0.00,VWS V14.00,2013-04-11 06:10:00,
2013-04-11 02:15:00,59.5,53.7,29.85,SSW,209,0.0,3.0,81,0.00,,---,0.00,VWS V14.00,2013-04-11 06:15:00,
2013-04-11 02:20:00,59.4,53.2,29.85,SSW,209,0.0,3.0,80,0.00,,---,0.00,VWS V14.00,2013-04-11 06:20:00,
2013-04-11 02:25:00,59.1,53.3,29.85,SSW,209,0.0,3.0,81,0.00,,---,0.00,VWS V14.00,2013-04-11 06:25:00,
2013-04-11 02:30:00,58.9,53.1,29.85,SSW,209,0.0,3.0,81,0.00,,---,0.00,VWS V14.00,2013-04-11 06:30:00,
2013-04-11 02:36:00,58.6,53.1,29.85,SSW,209,0.0,0.0,82,0.00,,---,0.00,VWS V14.00,2013-04-11 06:36:00,
2013-04-11 02:41:00,58.2,53.1,29.84,SSW,209,0.0,2.0,83,0.00,,---,0.00,VWS V14.00,2013-04-11 06:41:00,
2013-04-11 02:46:00,58.0,53.2,29.84,SSW,209,2.0,3.0,84,0.00,,---,0.00,VWS V14.00,2013-04-11 06:46:00,
2013-04-11 02:52:00,58.1,53.6,29.84,SSW,209,1.0,3.0,85,0.00,,---,0.00,VWS V14.00,2013-04-11 06:52:00,
2013-04-11 02:57:00,58.2,53.1,29.84,SSW,209,0.0,3.0,83,0.00,,---,0.00,VWS V14.00,2013-04-11 06:57:00,
2013-04-11 03:00:00,57.6,52.5,29.84,SSW,209,4.0,4.0,83,0.00,,---,0.00,VWS V14.00,2013-04-11 07:00:00,
2013-04-11 03:02:00,57.5,52.7,29.84,SSW,209,1.0,4.0,84,0.00,,---,0.00,VWS V14.00,2013-04-11 07:02:00,
2013-04-11 03:07:00,57.3,52.8,29.84,SSW,209,0.0,4.0,85,0.00,,---,0.00,VWS V14.00,2013-04-11 07:07:00,
2013-04-11 03:12:00,57.2,52.7,29.84,SSW,209,0.0,4.0,85,0.00,,---,0.00,VWS V14.00,2013-04-11 07:12:00,
2013-04-11 03:18:00,57.1,52.6,29.84,SSW,209,1.0,4.0,85,0.00,,---,0.00,VWS V14.00,2013-04-11 07:18:00,
2013-04-11 03:30:00,57.2,52.7,29.84,SSW,202,0.0,4.0,85,0.00,,---,0.00,VWS V14.00,2013-04-11 07:30:00,
2013-04-11 04:00:00,56.9,53.1,29.83,SSW,202,0.0,3.0,87,0.00,,---,0.00,VWS V14.00,2013-04-11 08:00:00,
2013-04-11 04:30:00,56.1,52.6,29.84,SSW,202,0.0,1.0,88,0.00,,---,0.00,VWS V14.00,2013-04-11 08:30:00,
2013-04-11 05:00:00,55.9,52.4,29.84,SSW,202,0.0,2.0,88,0.00,,---,0.00,VWS V14.00,2013-04-11 09:00:00,
2013-04-11 05:30:00,55.0,52.1,29.84,SSW,202,0.0,2.0,90,0.00,,---,0.00,VWS V14.00,2013-04-11 09:30:00,
2013-04-11 06:00:00,54.5,51.9,29.84,SSW,202,0.0,2.0,91,0.00,,---,0.00,VWS V14.00,2013-04-11 10:00:00,
2013-04-11 06:30:00,53.8,51.5,29.84,SSW,202,0.0,2.0,92,0.00,,---,0.00,VWS V14.00,2013-04-11 10:30:00,
2013-04-11 07:00:00,53.4,51.1,29.85,SSW,202,0.0,0.0,92,0.00,,---,0.00,VWS V14.00,2013-04-11 11:00:00,
2013-04-11 07:30:00,53.5,51.5,29.86,SSW,202,0.0,2.0,93,0.00,,---,0.00,VWS V14.00,2013-04-11 11:30:00,
2013-04-11 08:00:00,53.4,51.4,29.87,SSW,202,0.0,3.0,93,0.00,,---,0.00,VWS V14.00,2013-04-11 12:00:00,
2013-04-11 08:30:00,54.4,52.1,29.87,SSW,202,0.0,2.0,92,0.00,,---,0.00,VWS V14.00,2013-04-11 12:30:00,
2013-04-11 09:00:00,58.7,54.5,29.87,South,180,0.0,2.0,86,0.00,,---,0.00,VWS V14.00,2013-04-11 13:00:00,
2013-04-11 09:30:00,64.1,55.7,29.86,SW,225,3.0,8.0,74,0.00,,---,0.00,VWS V14.00,2013-04-11 13:30:00,
2013-04-11 10:00:00,67.9,57.4,29.85,SW,225,5.0,9.0,69,0.00,,---,0.00,VWS V14.00,2013-04-11 14:00:00,
2013-04-11 10:30:00,69.5,56.8,29.84,SW,225,4.0,11.0,64,0.00,,---,0.00,VWS V14.00,2013-04-11 14:30:00,
2013-04-11 11:00:00,72.0,56.0,29.84,SW,225,5.0,11.0,57,0.00,,---,0.00,VWS V14.00,2013-04-11 15:00:00,
2013-04-11 11:30:00,72.8,56.2,29.83,SW,225,6.0,13.0,56,0.00,,---,0.00,VWS V14.00,2013-04-11 15:30:00,
2013-04-11 12:00:00,72.8,55.7,29.83,SW,225,5.0,12.0,55,0.00,,---,0.00,VWS V14.00,2013-04-11 16:00:00,
2013-04-11 12:30:00,74.1,52.6,29.81,WSW,248,5.0,14.0,47,0.00,,---,0.00,VWS V14.00,2013-04-11 16:30:00,
2013-04-11 13:00:00,74.9,53.3,29.80,SW,225,6.0,14.0,47,0.00,,---,0.00,VWS V14.00,2013-04-11 17:00:00,
2013-04-11 13:30:00,75.8,52.4,29.78,WSW,248,4.0,13.0,44,0.00,,---,0.00,VWS V14.00,2013-04-11 17:30:00,
2013-04-11 14:00:00,77.1,52.3,29.76,WSW,248,6.0,16.0,42,0.00,,---,0.00,VWS V14.00,2013-04-11 18:00:00,
2013-04-11 14:30:00,78.0,54.3,29.74,WSW,248,5.0,14.0,44,0.00,,---,0.00,VWS V14.00,2013-04-11 18:30:00,
2013-04-11 15:00:00,77.4,57.3,29.74,SW,225,7.0,16.0,50,0.00,,---,0.00,VWS V14.00,2013-04-11 19:00:00,
2013-04-11 15:30:00,75.9,54.8,29.74,SW,225,6.0,17.0,48,0.00,,---,0.00,VWS V14.00,2013-04-11 19:30:00,
2013-04-11 16:00:00,76.4,55.8,29.72,SW,225,8.0,21.0,49,0.00,,---,0.00,VWS V14.00,2013-04-11 20:00:00,
2013-04-11 16:30:00,76.0,56.0,29.71,SW,225,7.0,17.0,50,0.00,,---,0.00,VWS V14.00,2013-04-11 20:30:00,
2013-04-11 17:00:00,76.0,55.5,29.71,WSW,248,8.0,23.0,49,0.00,,---,0.00,VWS V14.00,2013-04-11 21:00:00,
2013-04-11 17:30:00,74.4,56.7,29.70,WSW,248,10.0,23.0,54,0.00,,---,0.00,VWS V14.00,2013-04-11 21:30:00,
2013-04-11 18:00:00,73.4,55.2,29.70,WSW,248,7.0,19.0,53,0.00,,---,0.00,VWS V14.00,2013-04-11 22:00:00,
2013-04-11 18:30:00,73.1,55.5,29.71,WSW,248,9.0,20.0,54,0.00,,---,0.00,VWS V14.00,2013-04-11 22:30:00,
2013-04-11 19:00:00,72.4,54.8,29.71,WSW,248,11.0,22.0,54,0.00,,---,0.00,VWS V14.00,2013-04-11 23:00:00,
2013-04-11 19:30:00,71.8,53.8,29.71,SW,225,8.0,21.0,53,0.00,,---,0.00,VWS V14.00,2013-04-11 23:30:00,
2013-04-11 20:00:00,70.6,54.2,29.70,SW,225,4.0,11.0,56,0.00,,---,0.00,VWS V14.00,2013-04-12 00:00:00,
2013-04-11 20:30:00,70.4,55.9,29.69,SW,225,7.0,17.0,60,0.00,,---,0.00,VWS V14.00,2013-04-12 00:30:00,
2013-04-11 21:00:00,70.1,56.9,29.70,SW,225,6.0,14.0,63,0.00,,---,0.00,VWS V14.00,2013-04-12 01:00:00,
2013-04-11 21:30:00,69.6,57.8,29.69,SW,225,6.0,16.0,66,0.00,,---,0.00,VWS V14.00,2013-04-12 01:30:00,
2013-04-11 22:00:00,69.3,57.9,29.70,WSW,248,4.0,11.0,67,0.00,,---,0.00,VWS V14.00,2013-04-12 02:00:00,
2013-04-11 22:30:00,69.1,58.5,29.69,SSE,158,2.0,6.0,69,0.00,,---,0.00,VWS V14.00,2013-04-12 02:30:00,
2013-04-11 23:00:00,68.2,61.1,29.68,SW,225,1.0,9.0,78,0.00,,---,0.00,VWS V14.00,2013-04-12 03:00:00,
2013-04-11 23:30:00,66.9,59.5,29.67,West,270,3.0,11.0,77,0.00,,---,0.00,VWS V14.00,2013-04-12 03:30:00,